"Period start","avg(HW err(1)/warn(2) (#))","avg(Visibility (m))","avg(Weather code (#))","avg(Precip intensity (mm/h))","min(HW err(1)/warn(2) (#))","max(HW err(1)/warn(2) (#))","std(HW err(1)/warn(2) (#))","med(HW err(1)/warn(2) (#))","min(Visibility (m))","max(Visibility (m))","std(Visibility (m))","med(Visibility (m))","min(Weather code (#))","max(Weather code (#))","std(Weather code (#))","med(Weather code (#))","min(Precip intensity (mm/h))","max(Precip intensity (mm/h))","std(Precip intensity (mm/h))","med(Precip intensity (mm/h))"
2016-05-17 00:00:00,2,8307,71,0.15,2,2,0,2,6509,11883,1459,7967,71,71,0,71,0.00,0.35,0.12,0.12
2016-05-17 00:10:00,2,8852,73,0.15,2,2,0,2,6567,11571,1483,8992,71,77,3,71,0.05,0.55,0.15,0.10
2016-05-17 00:20:00,2,7703,71,0.27,2,2,0,2,6291,9318,1028,7736,71,71,0,71,0.05,0.55,0.13,0.25
2016-05-17 00:30:00,2,7631,71,0.31,2,2,0,2,6607,9512,899,7363,71,71,0,71,0.10,0.50,0.14,0.33
2016-05-17 00:40:00,2,3379,71,2.38,2,2,0,2,1574,8638,2410,2016,71,71,0,71,0.10,4.30,1.50,3.10
2016-05-17 00:50:00,2,3006,71,2.62,2,2,0,2,1962,4810,1056,2566,71,71,0,71,0.65,4.45,1.28,2.92
2016-05-17 01:00:00,2,6320,71,0.27,2,2,0,2,4338,9113,1436,5828,71,71,0,71,0.00,0.80,0.30,0.08
2016-05-17 01:10:00,2,7753,72,0.07,2,2,0,2,5417,10933,1490,7375,71,77,2,71,0.00,0.25,0.07,0.05
2016-05-17 01:20:00,2,14711,21,0.01,2,2,0,2,10617,25861,4582,12758,0,77,28,10,0.00,0.05,0.02,0.00
2016-05-17 01:30:00,2,21532,0,0.00,2,2,0,2,15536,26739,3491,21168,0,0,0,0,0.00,0.00,0.00,0.00
2016-05-17 01:40:00,2,22588,0,0.00,2,2,0,2,11284,38856,9103,19694,0,0,0,0,0.00,0.00,0.00,0.00
2016-05-17 01:50:00,2,11192,44,0.11,2,2,0,2,5625,20034,3806,10580,0,71,31,56,0.00,0.30,0.10,0.10
2016-05-17 02:00:00,2,5622,71,0.55,2,2,0,2,4010,7127,1048,5572,71,71,0,71,0.10,2.30,0.65,0.33
2016-05-17 02:10:00,2,5071,71,0.49,2,2,0,2,3615,6990,1053,5097,71,71,0,71,0.05,0.95,0.29,0.55
2016-05-17 02:20:00,2,9428,54,0.03,2,2,0,2,5859,18518,3572,8738,10,77,29,71,0.00,0.10,0.03,0.00
2016-05-17 02:30:00,2,12878,5,0.00,2,2,0,2,9229,23747,4248,10998,0,10,5,5,0.00,0.00,0.00,0.00
2016-05-17 02:40:00,2,16927,0,0.00,2,2,0,2,11972,21222,3577,18449,0,0,0,0,0.00,0.00,0.00,0.00
2016-05-17 02:50:00,2,12981,0,0.00,2,2,0,2,9550,16872,2310,12644,0,0,0,0,0.00,0.00,0.00,0.00
2016-05-17 03:00:00,2,13846,0,0.00,2,2,0,2,9040,22521,3961,13526,0,0,0,0,0.00,0.00,0.00,0.00
2016-05-17 03:10:00,2,13505,0,0.00,2,2,0,2,8385,19746,3976,12864,0,0,0,0,0.00,0.00,0.00,0.00
2016-05-17 03:20:00,2,12952,0,0.00,2,2,0,2,10885,17305,1948,11971,0,0,0,0,0.00,0.00,0.00,0.00
2016-05-17 03:30:00,2,11097,0,0.00,2,2,0,2,7136,16407,2817,10670,0,0,0,0,0.00,0.00,0.00,0.00
2016-05-17 03:40:00,2,11697,0,0.00,2,2,0,2,8204,15699,2850,11168,0,0,0,0,0.00,0.00,0.00,0.00
2016-05-17 03:50:00,2,10722,0,0.00,2,2,0,2,7496,16081,2497,11036,0,0,0,0,0.00,0.00,0.00,0.00
2016-05-17 04:00:00,2,8816,6,0.00,2,2,0,2,5871,14982,2649,8562,0,10,5,10,0.00,0.00,0.00,0.00
2016-05-17 04:10:00,2,8229,10,0.00,2,2,0,2,4812,10825,1644,8353,10,10,0,10,0.00,0.00,0.00,0.00
2016-05-17 04:20:00,2,12252,10,0.00,2,2,0,2,6627,16597,3405,13744,10,10,0,10,0.00,0.00,0.00,0.00
2016-05-17 04:30:00,2,13234,1,0.00,2,2,0,2,10114,18962,2331,12946,0,10,3,0,0.00,0.00,0.00,0.00
2016-05-17 04:40:00,2,14753,0,0.00,2,2,0,2,9454,25314,5204,13172,0,0,0,0,0.00,0.00,0.00,0.00
2016-05-17 04:50:00,2,12351,0,0.00,2,2,0,2,7938,19680,3904,10849,0,0,0,0,0.00,0.00,0.00,0.00
2016-05-17 05:00:00,2,15489,0,0.00,2,2,0,2,7098,22399,5175,16028,0,0,0,0,0.00,0.00,0.00,0.00
2016-05-17 05:10:00,2,17214,0,0.00,2,2,0,2,12637,28408,4554,16011,0,0,0,0,0.00,0.00,0.00,0.00
2016-05-17 05:20:00,2,12671,0,0.00,2,2,0,2,8264,21352,3291,12544,0,0,0,0,0.00,0.00,0.00,0.00
2016-05-17 05:30:00,2,13397,0,0.00,2,2,0,2,9249,20398,3495,12338,0,0,0,0,0.00,0.00,0.00,0.00
2016-05-17 05:40:00,2,13446,0,0.00,2,2,0,2,8997,19796,3085,12747,0,0,0,0,0.00,0.00,0.00,0.00
2016-05-17 05:50:00,2,11950,0,0.00,2,2,0,2,6356,17903,3292,12034,0,0,0,0,0.00,0.00,0.00,0.00
2016-05-17 06:00:00,2,13101,0,0.00,2,2,0,2,9019,19848,3031,12458,0,0,0,0,0.00,0.00,0.00,0.00
2016-05-17 06:10:00,2,25194,0,0.00,2,2,0,2,18406,33302,4757,24768,0,0,0,0,0.00,0.00,0.00,0.00
2016-05-17 06:20:00,2,12697,0,0.00,2,2,0,2,8774,16108,2309,12735,0,0,0,0,0.00,0.00,0.00,0.00
2016-05-17 06:30:00,2,17387,0,0.00,2,2,0,2,11725,27461,4362,16576,0,0,0,0,0.00,0.00,0.00,0.00
2016-05-17 06:40:00,2,20061,0,0.00,2,2,0,2,12543,35924,7640,17271,0,0,0,0,0.00,0.00,0.00,0.00
2016-05-17 06:50:00,2,18561,0,0.00,2,2,0,2,14165,23028,2960,18634,0,0,0,0,0.00,0.00,0.00,0.00
2016-05-17 07:00:00,2,17850,0,0.00,2,2,0,2,10159,28745,4852,16428,0,0,0,0,0.00,0.00,0.00,0.00
2016-05-17 07:10:00,2,18022,0,0.00,2,2,0,2,13221,24194,3290,18215,0,0,0,0,0.00,0.00,0.00,0.00
2016-05-17 07:20:00,2,14925,0,0.00,2,2,0,2,6602,20841,4371,15589,0,0,0,0,0.00,0.00,0.00,0.00
2016-05-17 07:30:00,2,17406,0,0.00,2,2,0,2,9013,26476,5188,16168,0,0,0,0,0.00,0.00,0.00,0.00
2016-05-17 07:40:00,2,22990,0,0.00,2,2,0,2,11533,28206,5735,25580,0,0,0,0,0.00,0.00,0.00,0.00
2016-05-17 07:50:00,2,11318,0,0.00,2,2,0,2,8183,18567,3239,9400,0,0,0,0,0.00,0.00,0.00,0.00
2016-05-17 08:00:00,2,13591,0,0.00,2,2,0,2,8097,23241,4250,13692,0,0,0,0,0.00,0.00,0.00,0.00
2016-05-17 08:10:00,2,19443,0,0.00,2,2,0,2,13625,26551,4440,17910,0,0,0,0,0.00,0.00,0.00,0.00
2016-05-17 08:20:00,2,23454,0,0.00,2,2,0,2,13808,31607,5494,23981,0,0,0,0,0.00,0.00,0.00,0.00
2016-05-17 08:30:00,2,25551,0,0.00,2,2,0,2,8669,43820,13627,21870,0,0,0,0,0.00,0.00,0.00,0.00
2016-05-17 08:40:00,2,17181,0,0.00,2,2,0,2,6895,36684,8129,15254,0,0,0,0,0.00,0.00,0.00,0.00
2016-05-17 08:50:00,2,15308,0,0.00,2,2,0,2,5687,27820,6318,15238,0,0,0,0,0.00,0.00,0.00,0.00
2016-05-17 09:00:00,2,8598,6,0.00,2,2,0,2,5486,12578,2498,7986,0,10,5,10,0.00,0.00,0.00,0.00
2016-05-17 09:10:00,2,7326,10,0.00,2,2,0,2,5317,9718,1447,7188,10,10,0,10,0.00,0.00,0.00,0.00
2016-05-17 09:20:00,2,7004,10,0.00,2,2,0,2,4746,10419,1547,6934,10,10,0,10,0.00,0.00,0.00,0.00
2016-05-17 09:30:00,2,7622,10,0.00,2,2,0,2,4109,10645,1784,7428,10,10,0,10,0.00,0.00,0.00,0.00
2016-05-17 09:40:00,2,8474,10,0.00,2,2,0,2,5696,12447,1894,7959,10,10,0,10,0.00,0.00,0.00,0.00
2016-05-17 09:50:00,2,9636,10,0.00,2,2,0,2,6960,12880,1769,9745,10,10,0,10,0.00,0.00,0.00,0.00
2016-05-17 10:00:00,2,11635,10,0.00,2,2,0,2,7744,18898,2986,10820,10,10,0,10,0.00,0.00,0.00,0.00
2016-05-17 10:10:00,2,11533,0,0.00,2,2,0,2,7855,18065,3556,10001,0,0,0,0,0.00,0.00,0.00,0.00
2016-05-17 10:20:00,2,13865,0,0.00,2,2,0,2,7657,22292,4626,13076,0,0,0,0,0.00,0.00,0.00,0.00
2016-05-17 10:30:00,2,24416,0,0.00,2,2,0,2,13686,38578,9230,23631,0,0,0,0,0.00,0.00,0.00,0.00
2016-05-17 10:40:00,2,41816,0,0.00,2,2,0,2,34306,50000,5359,41618,0,0,0,0,0.00,0.00,0.00,0.00
2016-05-17 10:50:00,2,47751,0,0.00,2,2,0,2,37520,50000,3926,50000,0,0,0,0,0.00,0.00,0.00,0.00
2016-05-17 11:00:00,2,48675,0,0.00,2,2,0,2,41050,50000,2666,50000,0,0,0,0,0.00,0.00,0.00,0.00
2016-05-17 11:10:00,2,49899,0,0.00,2,2,0,2,48990,50000,303,50000,0,0,0,0,0.00,0.00,0.00,0.00
2016-05-17 11:20:00,2,49754,0,0.00,2,2,0,2,48716,50000,493,50000,0,0,0,0,0.00,0.00,0.00,0.00
2016-05-17 11:30:00,2,49713,0,0.00,2,2,0,2,47129,50000,861,50000,0,0,0,0,0.00,0.00,0.00,0.00
2016-05-17 11:40:00,2,50000,0,0.00,2,2,0,2,50000,50000,0,50000,0,0,0,0,0.00,0.00,0.00,0.00
2016-05-17 11:50:00,2,50000,0,0.00,2,2,0,2,50000,50000,0,50000,0,0,0,0,0.00,0.00,0.00,0.00
2016-05-17 12:00:00,2,49869,0,0.00,2,2,0,2,48686,50000,394,50000,0,0,0,0,0.00,0.00,0.00,0.00
2016-05-17 12:10:00,2,50000,0,0.00,2,2,0,2,50000,50000,0,50000,0,0,0,0,0.00,0.00,0.00,0.00
2016-05-17 12:20:00,2,49874,0,0.00,2,2,0,2,49363,50000,252,50000,0,0,0,0,0.00,0.00,0.00,0.00
2016-05-17 12:30:00,2,50000,0,0.00,2,2,0,2,50000,50000,0,50000,0,0,0,0,0.00,0.00,0.00,0.00
2016-05-17 12:40:00,2,50000,0,0.00,2,2,0,2,50000,50000,0,50000,0,0,0,0,0.00,0.00,0.00,0.00
2016-05-17 12:50:00,2,50000,0,0.00,2,2,0,2,50000,50000,0,50000,0,0,0,0,0.00,0.00,0.00,0.00
2016-05-17 13:00:00,2,49914,0,0.00,2,2,0,2,49137,50000,259,50000,0,0,0,0,0.00,0.00,0.00,0.00
2016-05-17 13:10:00,2,50000,0,0.00,2,2,0,2,50000,50000,0,50000,0,0,0,0,0.00,0.00,0.00,0.00
2016-05-17 13:20:00,2,50000,0,0.00,2,2,0,2,50000,50000,0,50000,0,0,0,0,0.00,0.00,0.00,0.00
2016-05-17 13:30:00,2,50000,0,0.00,2,2,0,2,50000,50000,0,50000,0,0,0,0,0.00,0.00,0.00,0.00
2016-05-17 13:40:00,2,49809,0,0.00,2,2,0,2,48586,50000,434,50000,0,0,0,0,0.00,0.00,0.00,0.00
2016-05-17 13:50:00,2,50000,0,0.00,2,2,0,2,50000,50000,0,50000,0,0,0,0,0.00,0.00,0.00,0.00
2016-05-17 14:00:00,2,50000,0,0.00,2,2,0,2,50000,50000,0,50000,0,0,0,0,0.00,0.00,0.00,0.00
2016-05-17 14:10:00,2,49873,0,0.00,2,2,0,2,48727,50000,382,50000,0,0,0,0,0.00,0.00,0.00,0.00
2016-05-17 14:20:00,2,50000,0,0.00,2,2,0,2,50000,50000,0,50000,0,0,0,0,0.00,0.00,0.00,0.00
2016-05-17 14:30:00,2,50000,0,0.00,2,2,0,2,50000,50000,0,50000,0,0,0,0,0.00,0.00,0.00,0.00
2016-05-17 14:40:00,2,50000,0,0.00,2,2,0,2,50000,50000,0,50000,0,0,0,0,0.00,0.00,0.00,0.00
2016-05-17 14:50:00,2,49882,0,0.00,2,2,0,2,48820,50000,354,50000,0,0,0,0,0.00,0.00,0.00,0.00
2016-05-17 15:00:00,2,50000,0,0.00,2,2,0,2,50000,50000,0,50000,0,0,0,0,0.00,0.00,0.00,0.00
2016-05-17 15:10:00,2,49515,0,0.00,2,2,0,2,45331,50000,1396,50000,0,0,0,0,0.00,0.00,0.00,0.00
2016-05-17 15:20:00,2,50000,0,0.00,2,2,0,2,50000,50000,0,50000,0,0,0,0,0.00,0.00,0.00,0.00
2016-05-17 15:30:00,2,50000,0,0.00,2,2,0,2,50000,50000,0,50000,0,0,0,0,0.00,0.00,0.00,0.00
2016-05-17 15:40:00,2,50000,0,0.00,2,2,0,2,50000,50000,0,50000,0,0,0,0,0.00,0.00,0.00,0.00
2016-05-17 15:50:00,2,50000,0,0.00,2,2,0,2,50000,50000,0,50000,0,0,0,0,0.00,0.00,0.00,0.00
2016-05-17 16:00:00,2,50000,0,0.00,2,2,0,2,50000,50000,0,50000,0,0,0,0,0.00,0.00,0.00,0.00
2016-05-17 16:10:00,2,50000,0,0.00,2,2,0,2,50000,50000,0,50000,0,0,0,0,0.00,0.00,0.00,0.00
2016-05-17 16:20:00,2,48595,0,0.00,2,2,0,2,42398,50000,2822,50000,0,0,0,0,0.00,0.00,0.00,0.00
2016-05-17 16:30:00,2,49850,0,0.00,2,2,0,2,48502,50000,449,50000,0,0,0,0,0.00,0.00,0.00,0.00
2016-05-17 16:40:00,2,48916,30,0.00,2,2,0,2,45080,50000,1557,50000,0,78,37,0,0.00,0.00,0.00,0.00
2016-05-17 16:50:00,2,46626,78,0.00,2,2,0,2,37334,50000,4657,49549,78,78,0,78,0.00,0.00,0.00,0.00
2016-05-17 17:00:00,2,49216,78,0.00,2,2,0,2,46187,50000,1426,50000,78,78,0,78,0.00,0.00,0.00,0.00
2016-05-17 17:10:00,2,49653,47,0.00,2,2,0,2,47002,50000,895,50000,0,78,38,78,0.00,0.00,0.00,0.00
2016-05-17 17:20:00,2,49957,0,0.00,2,2,0,2,49571,50000,129,50000,0,0,0,0,0.00,0.00,0.00,0.00
2016-05-17 17:30:00,2,47527,0,0.00,2,2,0,2,40842,50000,3355,50000,0,0,0,0,0.00,0.00,0.00,0.00
2016-05-17 17:40:00,2,48891,0,0.00,2,2,0,2,45766,50000,1714,50000,0,0,0,0,0.00,0.00,0.00,0.00
2016-05-17 17:50:00,2,49640,0,0.00,2,2,0,2,46398,50000,1081,50000,0,0,0,0,0.00,0.00,0.00,0.00
2016-05-17 18:00:00,2,49476,0,0.00,2,2,0,2,44758,50000,1573,50000,0,0,0,0,0.00,0.00,0.00,0.00
2016-05-17 18:10:00,2,49196,0,0.00,2,2,0,2,44807,50000,1645,50000,0,0,0,0,0.00,0.00,0.00,0.00
2016-05-17 18:20:00,2,49724,0,0.00,2,2,0,2,48612,50000,553,50000,0,0,0,0,0.00,0.00,0.00,0.00
2016-05-17 18:30:00,2,49540,0,0.00,2,2,0,2,46529,50000,1058,50000,0,0,0,0,0.00,0.00,0.00,0.00
2016-05-17 18:40:00,2,48952,0,0.00,2,2,0,2,45297,50000,1677,50000,0,0,0,0,0.00,0.00,0.00,0.00
2016-05-17 18:50:00,2,50000,0,0.00,2,2,0,2,50000,50000,0,50000,0,0,0,0,0.00,0.00,0.00,0.00
2016-05-17 19:00:00,2,49168,0,0.00,2,2,0,2,45594,50000,1668,50000,0,0,0,0,0.00,0.00,0.00,0.00
2016-05-17 19:10:00,2,49834,0,0.00,2,2,0,2,48939,50000,347,50000,0,0,0,0,0.00,0.00,0.00,0.00
2016-05-17 19:20:00,2,49816,0,0.00,2,2,0,2,48805,50000,388,50000,0,0,0,0,0.00,0.00,0.00,0.00
2016-05-17 19:30:00,2,49215,0,0.00,2,2,0,2,46685,50000,1197,49904,0,0,0,0,0.00,0.00,0.00,0.00
2016-05-17 19:40:00,2,49060,0,0.00,2,2,0,2,41786,50000,2447,50000,0,0,0,0,0.00,0.00,0.00,0.00
2016-05-17 19:50:00,2,48594,0,0.00,2,2,0,2,43643,50000,2062,49752,0,0,0,0,0.00,0.00,0.00,0.00
2016-05-17 20:00:00,2,46615,0,0.00,2,2,0,2,38402,50000,3981,48852,0,0,0,0,0.00,0.00,0.00,0.00
2016-05-17 20:10:00,2,45079,0,0.00,2,2,0,2,35073,50000,4851,45814,0,0,0,0,0.00,0.00,0.00,0.00
2016-05-17 20:20:00,2,47740,0,0.00,2,2,0,2,41613,50000,2657,48755,0,0,0,0,0.00,0.00,0.00,0.00
2016-05-17 20:30:00,2,49951,0,0.00,2,2,0,2,49509,50000,147,50000,0,0,0,0,0.00,0.00,0.00,0.00
2016-05-17 20:40:00,2,43440,0,0.00,2,2,0,2,30783,50000,6029,44585,0,0,0,0,0.00,0.00,0.00,0.00
2016-05-17 20:50:00,2,45393,0,0.00,2,2,0,2,40682,50000,3207,45510,0,0,0,0,0.00,0.00,0.00,0.00
2016-05-17 21:00:00,2,47750,0,0.00,2,2,0,2,43178,50000,2532,48658,0,0,0,0,0.00,0.00,0.00,0.00
2016-05-17 21:10:00,2,45511,0,0.00,2,2,0,2,32763,50000,5390,47213,0,0,0,0,0.00,0.00,0.00,0.00
2016-05-17 21:20:00,2,41092,0,0.00,2,2,0,2,32267,50000,6481,39488,0,0,0,0,0.00,0.00,0.00,0.00
2016-05-17 21:30:00,2,46913,0,0.00,2,2,0,2,40658,50000,3841,49310,0,0,0,0,0.00,0.00,0.00,0.00
2016-05-17 21:40:00,2,45356,0,0.00,2,2,0,2,36475,50000,4350,46516,0,0,0,0,0.00,0.00,0.00,0.00
2016-05-17 21:50:00,2,45855,0,0.00,2,2,0,2,36670,50000,5150,49071,0,0,0,0,0.00,0.00,0.00,0.00
2016-05-17 22:00:00,2,40780,0,0.00,2,2,0,2,27585,50000,7149,42869,0,0,0,0,0.00,0.00,0.00,0.00
2016-05-17 22:10:00,2,47616,0,0.00,2,2,0,2,37428,50000,3840,50000,0,0,0,0,0.00,0.00,0.00,0.00
2016-05-17 22:20:00,2,40656,0,0.00,2,2,0,2,28405,50000,7275,39132,0,0,0,0,0.00,0.00,0.00,0.00
2016-05-17 22:30:00,2,40883,0,0.00,2,2,0,2,32427,47910,4593,42026,0,0,0,0,0.00,0.00,0.00,0.00
2016-05-17 22:40:00,2,45682,0,0.00,2,2,0,2,36541,50000,4985,48186,0,0,0,0,0.00,0.00,0.00,0.00
2016-05-17 22:50:00,2,48333,0,0.00,2,2,0,2,41574,50000,2710,49972,0,0,0,0,0.00,0.00,0.00,0.00
2016-05-17 23:00:00,2,48520,0,0.00,2,2,0,2,40626,50000,2887,50000,0,0,0,0,0.00,0.00,0.00,0.00
2016-05-17 23:10:00,2,44355,0,0.00,2,2,0,2,27460,50000,8276,50000,0,0,0,0,0.00,0.00,0.00,0.00
2016-05-17 23:20:00,2,43550,0,0.00,2,2,0,2,35276,50000,5535,44495,0,0,0,0,0.00,0.00,0.00,0.00
2016-05-17 23:30:00,2,42969,0,0.00,2,2,0,2,23689,50000,8198,46158,0,0,0,0,0.00,0.00,0.00,0.00
2016-05-17 23:40:00,2,40516,0,0.00,2,2,0,2,29272,50000,7423,41477,0,0,0,0,0.00,0.00,0.00,0.00
2016-05-17 23:50:00,2,37780,0,0.00,2,2,0,2,24585,50000,7516,35336,0,0,0,0,0.00,0.00,0.00,0.00
